Location: Gouy
(50.0008°N, 3.2556°E)
Time: 03:39:44
(UTC+00:00)

Cosmos 1782 Rocket - Pass Details

Date: 16 August 2024
Orbit: 603 x 628 km, 82.5° (Epoch: 09 September)

Event Time Altitude Azimuth Distance (km) Brightness Sun altitude
Rises 03:23:06 0° 173° (S) 2,887 6.7 -11.3°
Reaches altitude 10° 03:25:22 10° 168° (SSE) 1,990 5.9 -11.0°
Maximum altitude 03:29:37 49° 94° (E) 808 4.5 -10.5°
Drops below altitude 10° 03:33:56 10° 20° (NNE) 2,016 7.1 -9.9°
Sets 03:36:13 0° 15° (NNE) 2,930 7.9 -9.6°
